Babuna, Macedonia

03:43 PM CET на 23 Февруари, 2018 (GMT +0100)
Skopje | | Change Station

Elev 784 ft 41.97 °N, 21.65 °E | Updated 43 minutes ago

Заоблачено
Заоблачено
54 °F
Feels Like 54 °F
С
8
Ветер Променлив Ветер from ЈЈИ

Денес
High -- | Low -- °F
--% Chance of Precip.
Вчера
High -- | Low -- °F
Precip. -- инчи
Притисок 29.86 инчи
Видливост 6.2 миљи
Облаци Few 1600 ft
Делумно облачно 3300 ft
Претежно облачно 7000 ft
Точка на kондензација 41 °F
Влажност 62%
Дожд 0.00 инчи
Височина на снег Not available.
6:17 AM 5:15 PM
Првиот квартал, 53% visible
METAR LWSK 231400Z 15007KT 9999 FEW016 SCT033 BKN070 12/05 Q1011 NOSIG
Притисок 29.86 инчи
Видливост 6.2 миљи
Облаци Few 1600 ft
Делумно облачно 3300 ft
Претежно облачно 7000 ft
Точка на kондензација 41 °F
Влажност 62%
Дожд 0.00 инчи
Височина на снег Not available.
6:17 AM 5:15 PM
Првиот квартал, 53% visible
METAR LWSK 231400Z 15007KT 9999 FEW016 SCT033 BKN070 12/05 Q1011 NOSIG

Get Severe Weather Alerts

Thanks for signing up!

Be on the lookout for a verification email in your inbox.

You'll start receiving the daily forecast at 6 AM.

×

10-Day Weather Forecast

×

Almanac

Астрономијата

Feb. 23, 2018 Изгревање Заоѓање
Актуелно време
Граѓанскиот самрак
Наутички самрак
Астрономски самрак
Месечината
Должина на видливата светлина
Должина на денот
Tomorrow will be .
, % of the Moon is Illuminated

Екстреми денес

Country Highs Country Lows

Community

WunderPhotos

Category 6

Welcome to Category 6. This is the collective home for Weather Underground's featured writeups by Dr. Jeff Masters (right), Bob Henson (left), Chris Burt, and other regular contributors.

Nearby

Квалитетот на воздухот

  Квалитетот на воздухот AQ индекс Загадувач
Not available.

Височина на снег

Station Depth Висина

Earthquake Activity

Град Distance Mag. Time & Date
Minimum magnitude displayed is 2.5.

Coastal Water Temperatures

Место Температура

Stations

Nearby Weather Stations

Локација на станицата Темп. Лични чувство за темп. со ветерот Точка на kондензација Влажност Ветер Precip. Elev Ажурирани Тип